Location: Freistadt
(48.5112°N, 14.5013°E)
Time: 20:13:29
(UTC+02:00)

VELOX 1 - Pass Details

Date: 01 March 2024
Orbit: 607 x 620 km, 98.4° (Epoch: 13 April)

Event Time Altitude Azimuth Distance (km) Brightness Sun altitude
Rises 20:33:27 0° 8° (N) 2,880 ? -28.0°
Reaches altitude 10° 20:35:42 10° 2° (N) 1,970 ? -28.3°
Maximum altitude 20:39:44 43° 291° (WNW) 865 ? -28.9°
Enters shadow 20:40:33 38° 261° (W) 933 ? -29.0°
Exits shadow 20:44:56 - 216° (SW) 2,425 ? -29.7°
Sets 20:45:59 0° 214° (SW) 2,854 ? -29.8°
